User: anonymous   Login
Location: Mentone
(34.5413°N, 85.5351°W)
Time: 22:19:40
(UTC-05:00)
Language:

Okean O Rocket - Orbit

View from above orbital plane
View from above orbital plane
View from above satellite
View from above satellite

Ground track
Ground track

The orbit data is extracted from the following two-line orbital elements,

1 25861U 99039B   17173.52718513 -.00000002 +00000-0 +71152-5 0  9997
2 25861 098.1054 144.8737 0016985 066.5980 042.3550 14.78414663966451
Epoch (UTC): 22 June 2017 12:39:08
Eccentricity: 0.0016985
inclination: 98.1054°
perigee height: 622 km
apogee height: 646 km
right ascension of ascending node: 144.8737°
argument of perigee: 66.5980°
revolutions per day: 14.78414663
mean anomaly at epoch: 42.3550°
orbit number at epoch: 96645

The dashed part of the orbit path shows where the satellite is in the earth's shadow,  

DLR